When you browse on this site, cookies collect data to enhance your experience and personalize the content and advertising you see.
Visit our Privacy Policy to learn more. By continuing to use the site, you agree to this use of cookies and data.
  • In Romania
  • List of Countries
  • For 7 days
  • Water Temperature
  • Weather Map
  • Weather Widgets
  • user-avatar
    Login

    Hourly Weather Belém

    Today, 2 April, Thursday

    Time Temperature Precipitation Wind Pressure Humidity
    00:00 +26°C° 0.1 mm 3 mps 758 mmHg 97%
    01:00 +26°C° 0 mm 2 mps 757 mmHg 97%
    02:00 +26°C° 0 mm 2 mps 757 mmHg 97%
    03:00 +26°C° 0 mm 2 mps 756 mmHg 98%
    04:00 +26°C° 0 mm 2 mps 757 mmHg 98%
    05:00 +26°C° 0 mm 2 mps 757 mmHg 97%
    06:00 +26°C° 0 mm 2 mps 757 mmHg 97%
    07:00 +26°C° 0 mm 2 mps 758 mmHg 97%
    08:00 +27°C° 0 mm 2 mps 758 mmHg 96%
    09:00 +27°C° 0 mm 2 mps 758 mmHg 95%
    10:00 +28°C° 0 mm 2 mps 758 mmHg 88%
    11:00 +29°C° 0 mm 2 mps 758 mmHg 82%
    12:00 +31°C° 0 mm 1 mps 758 mmHg 76%
    13:00 +31°C° 0.6 mm 1 mps 757 mmHg 79%
    14:00 +31°C° 0.6 mm 1 mps 756 mmHg 82%
    15:00 +31°C° 0.6 mm 1 mps 756 mmHg 86%
    16:00 +30°C° 1.2 mm 2 mps 756 mmHg 88%
    17:00 +29°C° 1.2 mm 2 mps 756 mmHg 91%
    18:00 +28°C° 1.2 mm 3 mps 756 mmHg 94%
    19:00 +27°C° 1.1 mm 3 mps 757 mmHg 95%
    20:00 +27°C° 1.1 mm 3 mps 757 mmHg 96%
    21:00 +27°C° 1.1 mm 3 mps 758 mmHg 96%
    22:00 +27°C° 0.4 mm 3 mps 758 mmHg 96%
    23:00 +26°C° 0.4 mm 2 mps 758 mmHg 97%

    Tomorrow, 3 April, Friday

    Time Temperature Precipitation Wind Pressure Humidity
    00:00 +26°C° 0.4 mm 2 mps 758 mmHg 97%
    01:00 +26°C° 0.1 mm 2 mps 757 mmHg 97%
    02:00 +26°C° 0.1 mm 2 mps 757 mmHg 97%
    03:00 +26°C° 0.1 mm 2 mps 756 mmHg 97%
    04:00 +26°C° 0 mm 2 mps 756 mmHg 97%
    05:00 +26°C° 0 mm 1 mps 756 mmHg 97%
    06:00 +26°C° 0 mm 1 mps 757 mmHg 97%
    07:00 +27°C° 0 mm 1 mps 757 mmHg 93%
    08:00 +28°C° 0 mm 1 mps 757 mmHg 89%
    09:00 +29°C° 0 mm 1 mps 758 mmHg 85%
    10:00 +31°C° 0.1 mm 2 mps 757 mmHg 78%
    11:00 +32°C° 0.1 mm 2 mps 757 mmHg 71%
    12:00 +34°C° 0.1 mm 2 mps 757 mmHg 65%
    13:00 +32°C° 1.5 mm 2 mps 756 mmHg 73%
    14:00 +31°C° 1.5 mm 2 mps 755 mmHg 81%
    15:00 +30°C° 1.5 mm 3 mps 755 mmHg 88%
    16:00 +30°C° 1.2 mm 3 mps 755 mmHg 90%
    17:00 +29°C° 1.2 mm 3 mps 755 mmHg 92%
    18:00 +28°C° 1.2 mm 3 mps 755 mmHg 94%
    19:00 +27°C° 0.2 mm 3 mps 755 mmHg 94%
    20:00 +27°C° 0.2 mm 3 mps 756 mmHg 95%
    21:00 +27°C° 0.2 mm 3 mps 757 mmHg 96%
    22:00 +27°C° 0 mm 3 mps 757 mmHg 96%
    23:00 +26°C° 0 mm 2 mps 757 mmHg 96%

    Day after tomorrow, 4 April, Saturday

    Time Temperature Precipitation Wind Pressure Humidity
    00:00 +26°C° 0 mm 2 mps 757 mmHg 97%
    01:00 +26°C° 0.1 mm 2 mps 756 mmHg 97%
    02:00 +26°C° 0.1 mm 2 mps 756 mmHg 97%
    03:00 +26°C° 0.1 mm 2 mps 756 mmHg 97%
    04:00 +26°C° 0.2 mm 2 mps 756 mmHg 97%
    05:00 +26°C° 0.2 mm 2 mps 756 mmHg 97%
    06:00 +25°C° 0.2 mm 2 mps 756 mmHg 97%
    07:00 +27°C° 0 mm 2 mps 756 mmHg 92%
    08:00 +28°C° 0 mm 2 mps 757 mmHg 87%
    09:00 +30°C° 0 mm 2 mps 757 mmHg 83%
    10:00 +31°C° 0.3 mm 2 mps 757 mmHg 78%
    11:00 +32°C° 0.3 mm 2 mps 757 mmHg 74%
    12:00 +34°C° 0.3 mm 2 mps 756 mmHg 70%
    13:00 +32°C° 1.2 mm 2 mps 756 mmHg 76%
    14:00 +31°C° 1.2 mm 3 mps 755 mmHg 81%
    15:00 +31°C° 1.2 mm 3 mps 754 mmHg 87%
    16:00 +30°C° 1.1 mm 3 mps 754 mmHg 89%
    17:00 +29°C° 1.1 mm 3 mps 754 mmHg 92%
    18:00 +28°C° 1.1 mm 3 mps 754 mmHg 94%
    19:00 +28°C° 0.2 mm 3 mps 755 mmHg 95%
    20:00 +27°C° 0.2 mm 3 mps 756 mmHg 95%
    21:00 +27°C° 0.2 mm 3 mps 756 mmHg 96%
    22:00 +27°C° 0 mm 3 mps 756 mmHg 96%
    23:00 +26°C° 0 mm 2 mps 757 mmHg 96%

    5 April, Sunday

    Time Temperature Precipitation Wind Pressure Humidity
    00:00 +26°C° 0 mm 2 mps 757 mmHg 97%
    01:00 +26°C° 0 mm 2 mps 756 mmHg 97%
    02:00 +26°C° 0 mm 2 mps 756 mmHg 97%
    03:00 +26°C° 0 mm 2 mps 756 mmHg 97%
    04:00 +26°C° 0.2 mm 2 mps 756 mmHg 97%
    05:00 +26°C° 0.2 mm 2 mps 756 mmHg 97%
    06:00 +26°C° 0.2 mm 2 mps 756 mmHg 97%
    07:00 +27°C° 0.2 mm 2 mps 757 mmHg 93%
    08:00 +28°C° 0.2 mm 2 mps 757 mmHg 88%
    09:00 +30°C° 0.2 mm 2 mps 758 mmHg 83%
    10:00 +30°C° 0.5 mm 2 mps 758 mmHg 82%
    11:00 +31°C° 0.5 mm 2 mps 757 mmHg 82%
    12:00 +32°C° 0.5 mm 2 mps 757 mmHg 81%
    13:00 +31°C° 1.5 mm 2 mps 756 mmHg 84%
    14:00 +31°C° 1.5 mm 3 mps 756 mmHg 86%
    15:00 +30°C° 1.5 mm 3 mps 755 mmHg 89%
    16:00 +30°C° 1 mm 3 mps 755 mmHg 91%
    17:00 +29°C° 1 mm 3 mps 755 mmHg 92%
    18:00 +28°C° 1 mm 3 mps 755 mmHg 94%
    19:00 +28°C° 1.5 mm 3 mps 756 mmHg 95%
    20:00 +27°C° 1.5 mm 3 mps 756 mmHg 95%
    21:00 +27°C° 1.5 mm 3 mps 757 mmHg 96%
    22:00 +27°C° 0 mm 2 mps 757 mmHg 96%
    23:00 +27°C° 0 mm 2 mps 757 mmHg 96%

    6 April, Monday

    Time Temperature Precipitation Wind Pressure Humidity
    00:00 +26°C° 0 mm 2 mps 757 mmHg 96%
    01:00 +26°C° 0.3 mm 2 mps 757 mmHg 96%
    02:00 +26°C° 0.3 mm 2 mps 757 mmHg 97%
    03:00 +26°C° 0.3 mm 2 mps 756 mmHg 97%
    04:00 +26°C° 0.2 mm 2 mps 756 mmHg 97%
    05:00 +26°C° 0.2 mm 2 mps 757 mmHg 97%
    06:00 +26°C° 0.2 mm 1 mps 757 mmHg 97%
    07:00 +27°C° 1.2 mm 2 mps 757 mmHg 95%
    08:00 +28°C° 1.2 mm 2 mps 758 mmHg 93%
    09:00 +29°C° 1.2 mm 2 mps 759 mmHg 91%
    10:00 +30°C° 2.3 mm 2 mps 758 mmHg 90%
    11:00 +30°C° 2.3 mm 2 mps 758 mmHg 89%
    12:00 +30°C° 2.3 mm 2 mps 758 mmHg 87%
    13:00 +30°C° 1.8 mm 2 mps 757 mmHg 89%
    14:00 +30°C° 1.8 mm 2 mps 756 mmHg 90%
    15:00 +29°C° 1.8 mm 2 mps 756 mmHg 91%
    16:00 +29°C° 0.7 mm 2 mps 756 mmHg 92%
    17:00 +28°C° 0.7 mm 2 mps 756 mmHg 94%
    18:00 +27°C° 0.7 mm 2 mps 757 mmHg 95%
    19:00 +27°C° 0.1 mm 2 mps 757 mmHg 95%
    20:00 +27°C° 0.1 mm 2 mps 757 mmHg 96%
    21:00 +27°C° 0.1 mm 2 mps 758 mmHg 96%
    22:00 +27°C° 0 mm 2 mps 758 mmHg 96%
    23:00 +26°C° 0 mm 2 mps 758 mmHg 96%

    7 April, Tuesday

    Time Temperature Precipitation Wind Pressure Humidity
    00:00 +26°C° 0 mm 2 mps 758 mmHg 96%
    01:00 +26°C° 0.1 mm 1 mps 757 mmHg 97%
    02:00 +26°C° 0.1 mm 1 mps 757 mmHg 97%
    03:00 +26°C° 0.1 mm 1 mps 756 mmHg 97%
    04:00 +26°C° 0.7 mm 1 mps 757 mmHg 97%
    05:00 +26°C° 0.7 mm 1 mps 757 mmHg 97%
    06:00 +26°C° 0.7 mm 1 mps 757 mmHg 97%
    07:00 +27°C° 1.4 mm 1 mps 757 mmHg 95%
    08:00 +28°C° 1.4 mm 1 mps 758 mmHg 93%
    09:00 +29°C° 1.4 mm 1 mps 758 mmHg 91%
    10:00 +29°C° 1.1 mm 2 mps 758 mmHg 92%
    11:00 +28°C° 1.1 mm 2 mps 758 mmHg 93%
    12:00 +28°C° 1.1 mm 2 mps 758 mmHg 94%
    13:00 +28°C° 0 mm 2 mps 757 mmHg 90%
    14:00 +29°C° 0 mm 2 mps 756 mmHg 87%
    15:00 +30°C° 0 mm 2 mps 756 mmHg 83%
    16:00 +29°C° 0.5 mm 2 mps 756 mmHg 87%
    17:00 +28°C° 0.5 mm 2 mps 756 mmHg 90%
    18:00 +28°C° 0.5 mm 2 mps 756 mmHg 94%
    19:00 +27°C° 0 mm 2 mps 757 mmHg 95%
    20:00 +27°C° 0 mm 2 mps 757 mmHg 95%
    21:00 +27°C° 0 mm 2 mps 757 mmHg 96%
    22:00 +26°C° 0 mm 2 mps 757 mmHg 96%
    23:00 +26°C° 0 mm 2 mps 757 mmHg 96%
    Show more